TimeMST,TemperatureF,Dew PointF,Humidity,Sea Level PressureIn,VisibilityMPH,Wind Direction,Wind SpeedMPH,Gust SpeedMPH,PrecipitationIn,Events,Conditions,WindDirDegrees,DateUTC
12:52 AM,51.1,37.9,61,30.07,10.0,NNW,5.8,-,N/A,,Overcast,330,2012-11-06 07:52:00
2:52 AM,46.0,36.0,68,30.13,10.0,NNW,6.9,-,N/A,,Mostly Cloudy,340,2012-11-06 09:52:00
3:52 AM,43.0,35.1,74,30.15,10.0,NNW,3.5,-,N/A,,Overcast,330,2012-11-06 10:52:00
4:52 AM,42.1,32.0,67,30.19,10.0,North,9.2,-,N/A,,Partly Cloudy,10,2012-11-06 11:52:00
5:52 AM,39.9,30.0,68,30.21,10.0,Calm,Calm,-,N/A,,Clear,0,2012-11-06 12:52:00
6:52 AM,34.0,28.0,79,30.25,10.0,WSW,3.5,-,N/A,,Clear,240,2012-11-06 13:52:00
7:52 AM,39.9,33.1,77,30.25,10.0,Calm,Calm,-,N/A,,Clear,0,2012-11-06 14:52:00
8:52 AM,48.0,30.9,52,30.24,10.0,West,5.8,-,N/A,,Clear,280,2012-11-06 15:52:00
9:52 AM,51.1,30.0,44,30.22,10.0,NW,4.6,-,N/A,,Clear,310,2012-11-06 16:52:00
10:52 AM,54.0,28.9,38,30.20,10.0,NNW,10.4,-,N/A,,Clear,330,2012-11-06 17:52:00
11:52 AM,55.0,28.9,37,30.17,10.0,NW,12.7,17.3,N/A,,Clear,310,2012-11-06 18:52:00
12:52 PM,55.9,28.0,34,30.14,10.0,West,5.8,-,N/A,,Clear,270,2012-11-06 19:52:00
1:52 PM,57.0,27.0,32,30.12,10.0,WNW,6.9,-,N/A,,Clear,300,2012-11-06 20:52:00
2:52 PM,57.9,27.0,31,30.14,10.0,WNW,5.8,-,N/A,,Clear,300,2012-11-06 21:52:00
3:52 PM,51.1,24.1,35,30.17,10.0,NNE,8.1,-,N/A,,Clear,30,2012-11-06 22:52:00
4:52 PM,42.1,24.1,49,30.19,10.0,East,4.6,-,N/A,,Clear,100,2012-11-06 23:52:00
5:52 PM,39.0,24.1,55,30.20,10.0,ENE,5.8,-,N/A,,Mostly Cloudy,70,2012-11-07 00:52:00
6:52 PM,32.0,21.9,66,30.23,10.0,East,3.5,-,N/A,,Clear,90,2012-11-07 01:52:00
7:52 PM,32.0,23.0,69,30.20,10.0,ENE,4.6,-,N/A,,Clear,70,2012-11-07 02:52:00
8:52 PM,30.9,23.0,72,30.19,10.0,Calm,Calm,-,N/A,,Clear,0,2012-11-07 03:52:00
9:52 PM,28.9,21.9,75,30.18,6.0,Calm,Calm,-,N/A,,Haze,0,2012-11-07 04:52:00
10:52 PM,26.1,21.0,81,30.17,10.0,Calm,Calm,-,N/A,,Clear,0,2012-11-07 05:52:00
11:52 PM,28.0,21.9,78,30.15,10.0,ENE,3.5,-,N/A,,Clear,60,2012-11-07 06:52:00